Overview Statistics Trail Chart Weather Telemetry Raw packets
 

This is the latest recevied weather packets stored in our database for station/object KJ7HSW. If no packets are shown the sender has not sent any weather packets the latest 10 day(s).

<< 4 5 6 7 8 9 10 >>
Time Temp. Humidity Pressure Rain* Wind** Luminosity Snow
1788571828 18.33° C 68% 1015 hPa 0 mm - 52 W/m² -
1788571527 18.33° C 67% 1014.9 hPa 0 mm - 57 W/m² -
1788571224 18.33° C 66% 1014.8 hPa 0 mm - 62 W/m² -
1788570920 18.33° C 67% 1015 hPa 0 mm - 69 W/m² -
1788570635 18.33° C 67% 1014.8 hPa 0 mm - 75 W/m² -
1788570315 18.89° C 66% 1015.1 hPa 0 mm - 79 W/m² -
1788570012 18.89° C 66% 1014.9 hPa 0 mm - 86 W/m² -
1788569707 18.89° C 65% 1015 hPa 0 mm - 102 W/m² -
1788569396 18.89° C 65% 1014.8 hPa 0 mm - 108 W/m² -
1788569091 18.89° C 66% 1015 hPa 0 mm - 115 W/m² -
1788568786 18.89° C 68% 1015 hPa 0 mm - 111 W/m² -
1788568483 18.89° C 67% 1014.8 hPa 0 mm - 127 W/m² -
1788568178 18.89° C 64% 1014.9 hPa 0 mm - 129 W/m² -
1788567878 19.44° C 63% 1015 hPa 0 mm - 143 W/m² -
1788567577 19.44° C 61% 1014.8 hPa 0 mm - 182 W/m² -
1788567272 19.44° C 63% 1014.6 hPa 0 mm - 255 W/m² -
1788566967 19.44° C 66% 1014.6 hPa 0 mm - 297 W/m² -
1788566663 18.89° C 68% 1014.8 hPa 0 mm - 236 W/m² -
1788566358 18.89° C 66% 1014.7 hPa 0 mm - 164 W/m² -
1788566054 18.89° C 65% 1014.7 hPa 0 mm - 154 W/m² -
1788565753 18.89° C 65% 1014.7 hPa 0 mm - 191 W/m² -
1788565448 18.89° C 65% 1014.7 hPa 0 mm - 210 W/m² -
1788565144 18.89° C 65% 1014.4 hPa 0 mm - 170 W/m² -
1788564839 18.89° C 66% 1014.4 hPa 0 mm - 201 W/m² -
1788564536 18.89° C 67% 1014.6 hPa 0 mm - 225 W/m² -

* Rain latest hour (hover to see other rain measurements)
** Current wind speed in m/s (hover to see current wind gust speed)